Location: Sungai Liu
(2.3667°N, 113.8667°E)
Time: 13:12:41
(UTC+00:00)

USA 281 - Pass Details

Date: 20 May 2022
Orbit: 1070 x 1089 km, 106.0° (Epoch: 20 June)

Event Time Altitude Azimuth Distance (km) Brightness Sun altitude
Rises 21:08:48 0° 34° (NE) 3,880 7.1 -16.1°
Reaches altitude 10° 21:11:28 10° 42° (NE) 2,926 6.5 -15.5°
Maximum altitude 21:17:35 41° 110° (ESE) 1,527 4.4 -14.0°
Drops below altitude 10° 21:23:41 10° 178° (S) 2,933 5.3 -12.6°
Sets 21:26:21 0° 185° (S) 3,889 5.9 -12.0°
